CW8998 Weather Reports


Display with metric or nautical units.
time (UTC)temp
F
wind
direction
speed
MPH
gust
MPH
rain 1hr
in
rain 24hr
in
rain mn
in
humidity
%
barometer
mb
20260904112028 66 40 2.0 6.0 0.00 0.00 0.00 89 1011.2
20260904111544 66 360 1.0 4.0 0.00 0.00 0.00 88 1011.1
20260904111025 66 34 2.0 5.0 0.00 0.00 0.00 88 1011.2
20260904110530 66 74 1.0 5.0 0.00 0.00 0.00 88 1011.1
20260904110054 66 319 1.0 8.0 0.00 0.00 0.00 88 1011.2
20260904105528 66 0 1.0 8.0 0.00 0.00 0.00 88 1011.2
20260904105029 66 59 3.0 6.0 0.00 0.00 0.00 88 1011.1
20260904104546 66 311 2.0 6.0 0.00 0.00 0.00 87 1011.1
20260904104029 66 32 2.0 6.0 0.00 0.00 0.00 87 1011.1
20260904103528 66 78 2.0 5.0 0.00 0.00 0.00 87 1011.0
20260904103045 66 47 2.0 5.0 0.00 0.00 0.00 87 1011.0
20260904102526 66 33 1.0 5.0 0.00 0.00 0.00 87 1010.8
20260904102025 66 342 0.0 5.0 0.00 0.00 0.00 87 1010.9
20260904101551 66 61 1.0 5.0 0.00 0.00 0.00 87 1010.8
20260904101028 66 40 1.0 4.0 0.00 0.00 0.00 87 1010.7
20260904100528 66 13 2.0 4.0 0.00 0.00 0.00 87 1010.9
20260904100053 66 5 0.0 3.0 0.00 0.00 0.00 87 1010.7
20260904095528 66 0 0.0 3.0 0.00 0.00 0.00 87 1010.7
20260904095028 66 97 0.0 3.0 0.00 0.00 0.00 87 1010.6
20260904094544 66 0 0.0 3.0 0.00 0.00 0.00 87 1010.5
20260904094029 66 0 0.0 5.0 0.00 0.00 0.00 87 1010.6
20260904093529 67 0 2.0 5.0 0.00 0.00 0.00 87 1010.6
20260904093100 67 69 2.0 6.0 0.00 0.00 0.00 87 1010.6
20260904092530 67 263 1.0 6.0 0.00 0.00 0.00 87 1010.4
20260904092031 67 38 1.0 9.0 0.00 0.00 0.00 87 1010.4
20260904091551 67 263 2.0 9.0 0.00 0.00 0.00 87 1010.2
20260904091029 68 0 2.0 6.0 0.00 0.00 0.00 87 1010.4
20260904090529 68 36 2.0 11.0 0.00 0.00 0.00 87 1010.3
20260904090044 68 94 2.0 11.0 0.00 0.00 0.00 87 1010.2
20260904085529 68 82 3.0 9.0 0.00 0.00 0.00 88 1010.4
20260904085029 69 34 2.0 9.0 0.00 0.00 0.00 88 1010.4
20260904084545 69 326 0.0 9.0 0.00 0.00 0.00 88 1010.2
20260904084029 69 33 3.0 9.0 0.00 0.00 0.00 88 1010.3
20260904083529 70 206 2.0 9.0 0.00 0.00 0.00 88 1009.9
20260904083048 70 60 3.0 11.0 0.00 0.00 0.00 88 1010.1
20260904082528 70 65 4.0 11.0 0.00 0.00 0.00 89 1009.7
20260904082026 71 50 3.0 9.0 0.00 0.00 0.00 89 1010.0
20260904081546 71 0 2.0 8.0 0.00 0.00 0.00 89 1009.7
20260904081028 71 49 2.0 9.0 0.00 0.00 0.00 89 1010.0
20260904080528 71 32 2.0 9.0 0.00 0.00 0.00 89 1009.9
20260904080045 71 18 3.0 9.0 0.00 0.00 0.00 88 1010.0
20260904075528 71 351 1.0 8.0 0.00 0.00 0.00 88 1009.7
20260904075030 71 112 2.0 8.0 0.00 0.00 0.00 88 1009.8
20260904074543 71 351 3.0 11.0 0.00 0.00 0.00 88 1010.0
20260904074028 71 44 2.0 11.0 0.00 0.00 0.00 88 1009.7
20260904073528 71 59 4.0 11.0 0.00 0.00 0.00 88 1010.1
20260904073052 71 35 1.0 3.0 0.00 0.00 0.00 88 1009.7
20260904072528 71 0 0.0 4.0 0.00 0.00 0.00 88 1009.4
20260904072026 71 0 1.0 4.0 0.00 0.00 0.00 88 1009.3
20260904071600 71 0 0.0 2.0 0.00 0.00 0.00 87 1009.2
20260904071027 72 0 0.0 3.0 0.00 0.00 0.00 87 1009.2
20260904070528 72 0 0.0 3.0 0.00 0.00 0.00 87 1009.3
20260904070047 72 175 1.0 5.0 0.00 0.00 0.00 87 1009.4
20260904065525 72 171 1.0 5.0 0.00 0.00 0.00 87 1009.5
20260904065025 72 184 1.0 4.0 0.00 0.00 0.00 86 1009.4
20260904064544 72 0 0.0 4.0 0.00 0.00 0.00 86 1009.5
20260904064025 72 0 0.0 4.0 0.00 0.00 0.00 86 1009.6
20260904063528 72 0 0.0 1.0 0.00 0.00 0.00 86 1009.6
20260904063045 72 0 0.0 3.0 0.00 0.00 0.00 85 1009.6
20260904062529 72 0 0.0 4.0 0.00 0.00 0.00 85 1009.5
20260904062027 72 0 1.0 4.0 0.00 0.00 0.00 85 1009.5
20260904061552 73 19 0.0 3.0 0.00 0.00 0.00 85 1009.5
20260904061027 73 0 0.0 3.0 0.00 0.00 0.00 85 1009.4
20260904060525 73 0 0.0 3.0 0.00 0.00 0.00 85 1009.4
20260904060045 73 178 1.0 3.0 0.00 0.00 0.00 84 1009.3
20260904055527 73 0 0.0 2.0 0.00 0.00 0.00 84 1009.4
20260904055026 73 22 0.0 2.0 0.00 0.00 0.00 83 1009.6
20260904054547 73 86 0.0 2.0 0.00 0.00 0.00 83 1009.6
20260904054028 74 0 0.0 1.0 0.00 0.00 0.00 83 1009.5
20260904053527 74 0 0.0 1.0 0.00 0.00 0.00 83 1009.4
20260904053130 74 0 0.0 2.0 0.00 0.00 0.00 83 1009.4
20260904052528 74 269 0.0 2.0 0.00 0.00 0.00 82 1009.3
20260904052027 74 0 0.0 2.0 0.00 0.00 0.00 83 1009.2
20260904051546 74 0 0.0 4.0 0.00 0.00 0.00 82 1009.1
20260904051028 74 144 0.0 4.0 0.00 0.00 0.00 82 1009.1
20260904050526 74 242 1.0 3.0 0.00 0.00 0.00 82 1009.0
20260904050046 74 20 0.0 4.0 0.00 0.00 0.00 82 1009.0
20260904045528 74 346 1.0 4.0 0.00 0.00 0.00 82 1009.0
20260904045026 74 29 0.0 3.0 0.00 0.00 0.00 82 1009.0
20260904044550 74 0 0.0 2.0 0.00 0.00 0.00 82 1009.0
20260904044029 74 0 0.0 2.0 0.00 0.00 0.00 81 1008.9
20260904043525 75 174 0.0 2.0 0.00 0.00 0.00 81 1008.9
20260904043054 75 0 0.0 3.0 0.00 0.00 0.00 81 1008.8
20260904042528 75 0 0.0 4.0 0.00 0.00 0.00 81 1008.8
20260904042029 75 201 0.0 4.0 0.00 0.00 0.00 81 1008.8
20260904041602 75 0 0.0 4.0 0.00 0.00 0.00 81 1008.9
20260904041026 75 0 1.0 4.0 0.00 0.00 0.00 80 1008.7
20260904040527 75 190 1.0 4.0 0.00 0.00 0.00 80 1008.7
20260904040047 75 190 1.0 4.0 0.00 0.00 0.00 80 1008.6
20260904035528 75 176 1.0 3.0 0.00 0.00 0.00 79 1008.6
20260904035028 75 104 0.0 3.0 0.00 0.00 0.00 79 1008.8
20260904034543 76 49 1.0 3.0 0.00 0.00 0.00 79 1008.9
20260904034027 76 0 0.0 2.0 0.00 0.00 0.00 79 1008.8
20260904033528 76 0 0.0 2.0 0.00 0.00 0.00 79 1008.8
20260904033101 76 0 0.0 5.0 0.00 0.00 0.00 79 1008.6
20260904032528 76 0 0.0 5.0 0.00 0.00 0.00 78 1008.7
20260904032028 76 0 1.0 4.0 0.00 0.00 0.00 78 1008.7
20260904031551 76 159 1.0 4.0 0.00 0.00 0.00 78 1008.7
20260904031031 76 0 1.0 4.0 0.00 0.00 0.00 77 1008.7
20260904030527 77 159 0.0 3.0 0.00 0.00 0.00 77 1008.7
20260904030046 77 0 1.0 4.0 0.00 0.00 0.00 76 1008.9
20260904025528 77 112 0.0 4.0 0.00 0.00 0.00 76 1008.8
20260904025026 77 132 0.0 2.0 0.00 0.00 0.00 76 1008.9
20260904024545 77 331 0.0 2.0 0.00 0.00 0.00 76 1009.0
20260904024028 77 5 0.0 3.0 0.00 0.00 0.00 76 1009.0
20260904023528 77 39 1.0 3.0 0.00 0.00 0.00 76 1008.9
20260904023046 77 0 0.0 3.0 0.00 0.00 0.00 76 1008.9
20260904022528 78 343 0.0 2.0 0.00 0.00 0.00 76 1008.7
20260904022030 78 0 0.0 3.0 0.00 0.00 0.00 76 1008.5
20260904021551 78 0 0.0 3.0 0.00 0.00 0.00 75 1008.5
20260904021029 78 161 0.0 3.0 0.00 0.00 0.00 75 1008.5
20260904020528 78 0 0.0 2.0 0.00 0.00 0.00 75 1008.5
20260904020059 78 26 0.0 2.0 0.00 0.00 0.00 74 1008.6
20260904015526 78 0 0.0 2.0 0.00 0.00 0.00 74 1008.6
20260904015029 79 169 0.0 2.0 0.00 0.00 0.00 74 1008.6
20260904014615 79 0 0.0 2.0 0.00 0.00 0.00 74 1008.4
20260904014032 79 0 0.0 3.0 0.00 0.00 0.00 73 1008.4
20260904013530 79 0 0.0 4.0 0.00 0.00 0.00 73 1008.3
20260904013044 80 167 1.0 4.0 0.00 0.00 0.00 73 1008.1
20260904012528 80 159 0.0 3.0 0.00 0.00 0.00 73 1008.1
20260904012029 80 115 0.0 2.0 0.00 0.00 0.00 72 1008.1
20260904011552 80 0 0.0 2.0 0.00 0.00 0.00 71 1008.0
20260904011028 81 0 0.0 1.0 0.00 0.00 0.00 71 1008.1
20260904010528 81 0 0.0 2.0 0.00 0.00 0.00 70 1008.0
20260904010057 82 105 0.0 3.0 0.00 0.00 0.00 70 1007.9
20260904005528 82 0 0.0 3.0 0.00 0.00 0.00 69 1007.8
20260904005026 82 0 0.0 2.0 0.00 0.00 0.00 69 1007.8
20260904004545 83 164 0.0 3.0 0.00 0.00 0.00 68 1007.8
20260904004028 83 213 0.0 3.0 0.00 0.00 0.00 67 1007.7
20260904003528 83 0 0.0 5.0 0.00 0.00 0.00 67 1007.8
20260904003054 84 302 1.0 5.0 0.00 0.00 0.00 67 1007.7
20260904002529 84 169 1.0 7.0 0.00 0.00 0.00 66 1007.7
20260904002029 84 163 2.0 7.0 0.00 0.00 0.00 66 1007.8
20260904001543 84 173 2.0 7.0 0.00 0.00 0.00 66 1007.7
20260904001028 85 169 2.0 11.0 0.00 0.00 0.00 65 1007.7
20260904000528 85 327 2.0 11.0 0.00 0.00 0.00 65 1007.7
20260904000048 85 173 2.0 6.0 0.00 0.00 0.00 65 1007.6
20260903235525 85 167 3.0 6.0 0.00 0.00 0.00 65 1007.7
20260903235029 85 181 2.0 6.0 0.00 0.00 0.00 65 1007.9
20260903234546 85 159 2.0 8.0 0.00 0.00 0.00 64 1007.8
20260903234029 85 188 2.0 10.0 0.00 0.00 0.00 64 1007.8
20260903233533 85 355 4.0 10.0 0.00 0.00 0.00 64 1007.7
20260903233044 86 173 3.0 7.0 0.00 0.00 0.00 63 1007.6
20260903232529 86 190 3.0 8.0 0.00 0.00 0.00 64 1007.5
20260903232028 86 215 3.0 10.0 0.00 0.00 0.00 63 1007.5
20260903231544 86 319 3.0 10.0 0.00 0.00 0.00 63 1007.4
20260903231028 86 73 3.0 10.0 0.00 0.00 0.00 63 1007.3
20260903230529 86 171 3.0 10.0 0.00 0.00 0.00 64 1007.3
20260903230100 86 240 4.0 9.0 0.00 0.00 0.00 63 1007.4
20260903225530 87 355 2.0 7.0 0.00 0.00 0.00 63 1007.5
20260903225030 86 34 1.0 11.0 0.00 0.00 0.00 64 1007.5
20260903224545 85 176 3.0 11.0 0.00 0.00 0.00 64 1007.5
20260903224028 86 152 3.0 11.0 0.00 0.00 0.00 63 1007.4
20260903223530 86 148 3.0 9.0 0.00 0.00 0.00 63 1007.4
20260903223047 86 192 3.0 10.0 0.00 0.00 0.00 62 1007.3
20260903222526 87 153 2.0 11.0 0.00 0.00 0.00 61 1007.2
20260903222029 87 180 2.0 11.0 0.00 0.00 0.00 61 1007.3
20260903221546 86 199 2.0 9.0 0.00 0.00 0.00 62 1007.2
20260903221031 86 201 5.0 10.0 0.00 0.00 0.00 62 1007.2
20260903220528 87 173 3.0 11.0 0.00 0.00 0.00 62 1007.3
20260903220044 86 184 3.0 11.0 0.00 0.00 0.00 62 1007.2
20260903215529 86 184 2.0 9.0 0.00 0.00 0.00 62 1007.3
20260903215029 86 203 3.0 12.0 0.00 0.00 0.00 61 1007.3
20260903214550 87 192 3.0 12.0 0.00 0.00 0.00 60 1007.3
20260903214029 87 198 3.0 14.0 0.00 0.00 0.00 60 1007.4
20260903213527 86 207 4.0 20.0 0.00 0.00 0.00 60 1007.3
20260903213052 87 166 4.0 20.0 0.00 0.00 0.00 61 1007.4
20260903212529 86 94 5.0 10.0 0.00 0.00 0.00 61 1007.3
20260903212029 86 133 4.0 10.0 0.00 0.00 0.00 62 1007.3
20260903211553 86 209 4.0 10.0 0.00 0.00 0.00 61 1007.3
20260903211028 87 195 4.0 11.0 0.00 0.00 0.00 60 1007.3
20260903210528 87 85 3.0 13.0 0.00 0.00 0.00 60 1007.2
20260903210045 87 169 6.0 13.0 0.00 0.00 0.00 59 1007.2
20260903205525 87 137 5.0 17.0 0.00 0.00 0.00 59 1007.2
20260903205029 88 84 3.0 17.0 0.00 0.00 0.00 58 1007.3
20260903204548 88 142 5.0 17.0 0.00 0.00 0.00 59 1007.3
20260903204029 88 202 7.0 17.0 0.00 0.00 0.00 58 1007.2
20260903203526 89 61 4.0 16.0 0.00 0.00 0.00 57 1007.2
20260903203047 88 154 4.0 15.0 0.00 0.00 0.00 58 1007.3
20260903202527 88 182 4.0 9.0 0.00 0.00 0.00 59 1007.3
20260903202029 88 229 3.0 9.0 0.00 0.00 0.00 59 1007.2
20260903201545 87 95 2.0 10.0 0.00 0.00 0.00 59 1007.1
20260903201029 88 171 5.0 10.0 0.00 0.00 0.00 58 1007.3
20260903200528 88 275 3.0 10.0 0.00 0.00 0.00 58 1007.3
20260903200055 88 241 2.0 11.0 0.00 0.00 0.00 58 1007.4
20260903195528 87 151 3.0 11.0 0.00 0.00 0.00 60 1007.4
20260903195028 87 192 4.0 12.0 0.00 0.00 0.00 60 1007.6
20260903194548 87 155 4.0 13.0 0.00 0.00 0.00 59 1007.6
20260903194028 88 140 3.0 13.0 0.00 0.00 0.00 58 1007.7
20260903193528 89 87 4.0 13.0 0.00 0.00 0.00 57 1007.9
20260903193051 88 28 3.0 14.0 0.00 0.00 0.00 58 1007.8
20260903192526 87 138 6.0 14.0 0.00 0.00 0.00 58 1008.0
20260903192027 87 146 6.0 13.0 0.00 0.00 0.00 59 1008.0
20260903191543 88 168 5.0 13.0 0.00 0.00 0.00 58 1008.0
20260903191030 88 109 3.0 13.0 0.00 0.00 0.00 58 1008.0
20260903190529 88 77 4.0 13.0 0.00 0.00 0.00 58 1008.1
20260903190053 87 192 4.0 12.0 0.00 0.00 0.00 58 1008.1
20260903185528 87 229 5.0 12.0 0.00 0.00 0.00 59 1008.2
20260903185028 87 263 4.0 11.0 0.00 0.00 0.00 59 1008.4
20260903184549 87 54 4.0 11.0 0.00 0.00 0.00 58 1008.5
20260903184029 88 163 3.0 11.0 0.00 0.00 0.00 58 1008.4
20260903183528 87 202 5.0 16.0 0.00 0.00 0.00 59 1008.6
20260903183047 87 186 7.0 16.0 0.00 0.00 0.00 57 1008.5
20260903182525 87 146 6.0 16.0 0.00 0.00 0.00 57 1008.5
20260903182026 87 190 4.0 11.0 0.00 0.00 0.00 58 1008.4
20260903181551 87 86 4.0 13.0 0.00 0.00 0.00 58 1008.8
20260903181026 88 142 5.0 13.0 0.00 0.00 0.00 56 1008.8
20260903180526 88 124 4.0 15.0 0.00 0.00 0.00 57 1008.9
20260903175529 88 158 5.0 14.0 0.00 0.00 0.00 55 1009.0
20260903175027 88 170 4.0 14.0 0.00 0.00 0.00 55 1009.2
20260903174549 88 102 3.0 13.0 0.00 0.00 0.00 55 1009.1
20260903174027 88 184 6.0 13.0 0.00 0.00 0.00 54 1009.1
20260903173527 88 180 4.0 12.0 0.00 0.00 0.00 54 1009.1
20260903173052 88 180 4.0 12.0 0.00 0.00 0.00 56 1009.0
20260903172526 87 124 5.0 12.0 0.00 0.00 0.00 56 1008.9
20260903172029 87 237 4.0 12.0 0.00 0.00 0.00 57 1009.0
20260903171543 87 88 6.0 14.0 0.00 0.00 0.00 57 1009.1
20260903171028 87 200 6.0 15.0 0.00 0.00 0.00 57 1009.2
20260903170529 87 163 5.0 15.0 0.00 0.00 0.00 57 1009.3
20260903170152 87 150 3.0 9.0 0.00 0.00 0.00 57 1009.4
20260903165529 87 202 3.0 11.0 0.00 0.00 0.00 56 1009.3
20260903165030 87 228 3.0 12.0 0.00 0.00 0.00 57 1009.3
20260903164552 87 176 5.0 12.0 0.00 0.00 0.00 58 1009.3
20260903164027 86 148 4.0 12.0 0.00 0.00 0.00 59 1009.4
20260903163531 85 50 3.0 9.0 0.00 0.00 0.00 60 1009.5
20260903163045 85 177 4.0 9.0 0.00 0.00 0.00 61 1009.6
20260903162528 85 183 2.0 9.0 0.00 0.00 0.00 61 1009.7
20260903162029 84 125 3.0 7.0 0.00 0.00 0.00 62 1009.7
20260903161558 84 188 2.0 7.0 0.00 0.00 0.00 62 1009.8
20260903161025 83 68 2.0 9.0 0.00 0.00 0.00 64 1009.8
20260903160530 82 234 2.0 9.0 0.00 0.00 0.00 65 1009.8
20260903160050 82 46 2.0 9.0 0.00 0.00 0.00 65 1009.8
20260903155527 81 121 3.0 7.0 0.00 0.00 0.00 66 1009.9
20260903155029 81 44 2.0 6.0 0.00 0.00 0.00 66 1010.0
20260903154553 80 163 1.0 8.0 0.00 0.00 0.00 67 1010.0
20260903154029 80 180 2.0 8.0 0.00 0.00 0.00 69 1010.0
20260903153528 79 345 1.0 8.0 0.00 0.00 0.00 69 1010.1
20260903153045 78 22 2.0 7.0 0.00 0.00 0.00 69 1009.9
20260903152531 79 176 2.0 7.0 0.00 0.00 0.00 70 1010.0
20260903152025 78 94 1.0 5.0 0.00 0.00 0.00 70 1010.0
20260903151549 77 322 1.0 6.0 0.00 0.00 0.00 72 1010.0
20260903151030 77 0 2.0 6.0 0.00 0.00 0.00 72 1010.1
20260903150529 77 15 2.0 6.0 0.00 0.00 0.00 71 1010.2
20260903150047 77 88 1.0 7.0 0.00 0.00 0.00 72 1010.1
20260903145526 77 39 2.0 7.0 0.00 0.00 0.00 72 1010.1
20260903145026 77 67 1.0 5.0 0.00 0.00 0.00 72 1010.2
20260903144547 76 24 1.0 4.0 0.00 0.00 0.00 74 1010.1
20260903144029 75 120 1.0 5.0 0.00 0.00 0.00 75 1010.1
20260903143527 75 74 1.0 5.0 0.00 0.00 0.00 75 1010.2
20260903143046 75 101 1.0 4.0 0.00 0.00 0.00 74 1010.1
20260903142529 75 110 1.0 4.0 0.00 0.00 0.00 75 1010.1
20260903142028 74 175 0.0 6.0 0.00 0.00 0.00 76 1010.1
20260903141552 74 39 1.0 6.0 0.00 0.00 0.00 77 1010.1
20260903141028 73 162 1.0 6.0 0.00 0.00 0.00 77 1010.2
20260903140528 73 200 1.0 7.0 0.00 0.00 0.00 78 1010.2
20260903140056 72 0 3.0 7.0 0.00 0.00 0.00 78 1010.2
20260903135526 72 213 3.0 9.0 0.00 0.00 0.00 78 1010.2
20260903135029 72 360 2.0 9.0 0.00 0.00 0.00 79 1010.3
20260903134546 71 180 1.0 5.0 0.00 0.00 0.00 79 1010.3
20260903134028 71 177 1.0 6.0 0.00 0.00 0.00 80 1010.2
20260903133529 70 0 2.0 6.0 0.00 0.00 0.00 80 1010.2
20260903133044 70 246 0.0 4.0 0.00 0.00 0.00 80 1010.3
20260903132528 70 232 1.0 4.0 0.00 0.00 0.00 80 1010.2
20260903132025 69 199 0.0 3.0 0.00 0.00 0.00 80 1010.4
20260903131544 69 0 1.0 4.0 0.00 0.00 0.00 80 1010.4
20260903131029 69 326 1.0 4.0 0.00 0.00 0.00 80 1010.6
20260903130528 69 59 0.0 4.0 0.00 0.00 0.00 80 1010.6
20260903130055 69 84 1.0 3.0 0.00 0.00 0.00 80 1010.6
20260903125526 68 0 1.0 6.0 0.00 0.00 0.00 81 1010.6
20260903125028 68 0 1.0 6.0 0.00 0.00 0.00 81 1010.6
20260903124547 68 86 1.0 6.0 0.00 0.00 0.00 81 1010.7
20260903124028 68 234 1.0 7.0 0.00 0.00 0.00 81 1010.6
20260903123529 67 38 2.0 7.0 0.00 0.00 0.00 81 1010.5
20260903123043 67 0 1.0 4.0 0.00 0.00 0.00 81 1010.6
20260903122529 67 351 0.0 6.0 0.00 0.00 0.00 81 1010.6
20260903122029 67 0 0.0 6.0 0.00 0.00 0.00 81 1010.6
20260903121552 67 0 0.0 4.0 0.00 0.00 0.00 81 1010.5
20260903121025 67 0 1.0 4.0 0.00 0.00 0.00 81 1010.5
20260903120528 67 0 0.0 6.0 0.00 0.00 0.00 81 1010.5
20260903120051 67 0 1.0 6.0 0.00 0.00 0.00 81 1010.4
20260903115530 66 279 0.0 4.0 0.00 0.00 0.00 81 1010.6
20260903115028 66 194 1.0 4.0 0.00 0.00 0.00 82 1010.6
20260903114607 66 255 0.0 3.0 0.00 0.00 0.00 82 1010.5
20260903114028 66 53 1.0 3.0 0.00 0.00 0.00 81 1010.4
20260903113528 66 0 0.0 3.0 0.00 0.00 0.00 81 1010.5
20260903113105 66 265 0.0 4.0 0.00 0.00 0.00 81 1010.6
20260903112533 66 34 1.0 4.0 0.00 0.00 0.00 81 1010.6